EN

Hourly Weather Dziwiszow

Today, 29 October, Thursday

Time Temperature Precipitation Wind Pressure Humidity
00:00 +6°C° 0 mm 4 mps 722 mmHg 86%
01:00 +6°C° 0 mm 4 mps 722 mmHg 87%
02:00 +6°C° 0 mm 4 mps 721 mmHg 87%
03:00 +6°C° 0 mm 4 mps 721 mmHg 86%
04:00 +6°C° 0 mm 4 mps 721 mmHg 86%
05:00 +6°C° 0.1 mm 4 mps 721 mmHg 87%
06:00 +7°C° 0.1 mm 4 mps 721 mmHg 87%
07:00 +7°C° 0.1 mm 4 mps 720 mmHg 88%
08:00 +7°C° 0.3 mm 5 mps 721 mmHg 85%
09:00 +8°C° 0.3 mm 5 mps 721 mmHg 83%
10:00 +8°C° 0.3 mm 6 mps 721 mmHg 81%
11:00 +9°C° 0.1 mm 6 mps 721 mmHg 77%
12:00 +9°C° 0.1 mm 6 mps 721 mmHg 72%
13:00 +9°C° 0.1 mm 6 mps 722 mmHg 67%
14:00 +9°C° 0.1 mm 5 mps 722 mmHg 69%
15:00 +8°C° 0.1 mm 5 mps 722 mmHg 71%
16:00 +7°C° 0.1 mm 4 mps 723 mmHg 73%
17:00 +6°C° 0 mm 4 mps 723 mmHg 76%
18:00 +5°C° 0 mm 3 mps 724 mmHg 79%
19:00 +5°C° 0 mm 3 mps 724 mmHg 82%
20:00 +4°C° 0 mm 3 mps 725 mmHg 83%
21:00 +4°C° 0 mm 3 mps 725 mmHg 83%
22:00 +4°C° 0 mm 3 mps 725 mmHg 84%
23:00 +4°C° 0 mm 3 mps 725 mmHg 84%

Tomorrow, 30 October, Friday

Time Temperature Precipitation Wind Pressure Humidity
00:00 +4°C° 0 mm 3 mps 725 mmHg 85%
01:00 +4°C° 0 mm 3 mps 725 mmHg 85%
02:00 +4°C° 0 mm 3 mps 725 mmHg 85%
03:00 +4°C° 0 mm 3 mps 725 mmHg 85%
04:00 +4°C° 0 mm 3 mps 725 mmHg 84%
05:00 +6°C° 0.4 mm 2 mps 725 mmHg 86%
06:00 +6°C° 0.4 mm 2 mps 725 mmHg 89%
07:00 +6°C° 0.4 mm 2 mps 724 mmHg 91%
08:00 +7°C° 0.7 mm 2 mps 724 mmHg 92%
09:00 +7°C° 0.7 mm 3 mps 724 mmHg 93%
10:00 +8°C° 0.7 mm 3 mps 724 mmHg 93%
11:00 +8°C° 0.4 mm 4 mps 724 mmHg 92%
12:00 +8°C° 0.4 mm 4 mps 724 mmHg 92%
13:00 +9°C° 0.4 mm 5 mps 723 mmHg 91%
14:00 +9°C° 0.3 mm 5 mps 724 mmHg 91%
15:00 +9°C° 0.3 mm 5 mps 724 mmHg 92%
16:00 +9°C° 0.3 mm 5 mps 724 mmHg 93%
17:00 +9°C° 0.7 mm 5 mps 724 mmHg 93%
18:00 +9°C° 0.7 mm 5 mps 724 mmHg 94%
19:00 +9°C° 0.7 mm 5 mps 724 mmHg 94%
20:00 +9°C° 0.5 mm 5 mps 725 mmHg 94%
21:00 +9°C° 0.5 mm 5 mps 725 mmHg 94%
22:00 +9°C° 0.5 mm 5 mps 725 mmHg 94%
23:00 +9°C° 0.7 mm 5 mps 725 mmHg 94%

Day after tomorrow, 31 October, Saturday

Time Temperature Precipitation Wind Pressure Humidity
00:00 +9°C° 0.7 mm 5 mps 725 mmHg 94%
01:00 +9°C° 0.7 mm 5 mps 725 mmHg 94%
02:00 +9°C° 0.5 mm 5 mps 726 mmHg 94%
03:00 +9°C° 0.5 mm 5 mps 726 mmHg 95%
04:00 +10°C° 0.5 mm 4 mps 726 mmHg 95%
05:00 +10°C° 0.4 mm 4 mps 726 mmHg 96%
06:00 +10°C° 0.4 mm 4 mps 727 mmHg 96%
07:00 +10°C° 0.4 mm 3 mps 727 mmHg 96%
08:00 +10°C° 0.4 mm 3 mps 727 mmHg 96%
09:00 +10°C° 0.4 mm 3 mps 727 mmHg 96%
10:00 +10°C° 0.4 mm 2 mps 728 mmHg 96%
11:00 +10°C° 0.1 mm 2 mps 728 mmHg 96%
12:00 +10°C° 0.1 mm 2 mps 728 mmHg 95%
13:00 +12°C° 0.1 mm 2 mps 728 mmHg 95%
14:00 +12°C° 0.1 mm 1 mps 728 mmHg 96%
15:00 +11°C° 0.1 mm 1 mps 728 mmHg 96%
16:00 +11°C° 0.1 mm 1 mps 727 mmHg 96%
17:00 +10°C° 0 mm 0 mps 728 mmHg 96%
18:00 +10°C° 0 mm 0 mps 728 mmHg 96%
19:00 +9°C° 0 mm 0 mps 728 mmHg 96%
20:00 +11°C° 0 mm 1 mps 728 mmHg 96%
21:00 +11°C° 0 mm 1 mps 728 mmHg 96%
22:00 +11°C° 0 mm 1 mps 728 mmHg 96%
23:00 +9°C° 0 mm 2 mps 728 mmHg 95%

1 November, Sunday

Time Temperature Precipitation Wind Pressure Humidity
00:00 +9°C° 0 mm 2 mps 728 mmHg 95%
01:00 +9°C° 0 mm 2 mps 728 mmHg 94%
02:00 +9°C° 0 mm 2 mps 727 mmHg 94%
03:00 +9°C° 0 mm 2 mps 727 mmHg 94%
04:00 +8°C° 0 mm 2 mps 727 mmHg 94%
05:00 +8°C° 0 mm 2 mps 727 mmHg 94%
06:00 +8°C° 0 mm 2 mps 726 mmHg 94%
07:00 +8°C° 0 mm 2 mps 726 mmHg 94%
08:00 +9°C° 0 mm 2 mps 726 mmHg 89%
09:00 +10°C° 0 mm 2 mps 726 mmHg 84%
10:00 +13°C° 0 mm 2 mps 726 mmHg 80%
11:00 +12°C° 0 mm 3 mps 726 mmHg 76%
12:00 +13°C° 0 mm 3 mps 726 mmHg 72%
13:00 +13°C° 0 mm 3 mps 726 mmHg 68%
14:00 +12°C° 0 mm 3 mps 725 mmHg 72%
15:00 +11°C° 0 mm 3 mps 725 mmHg 76%
16:00 +10°C° 0 mm 3 mps 725 mmHg 80%
17:00 +10°C° 0 mm 3 mps 725 mmHg 83%
18:00 +10°C° 0 mm 3 mps 725 mmHg 86%
19:00 +9°C° 0 mm 3 mps 725 mmHg 89%
20:00 +9°C° 0 mm 3 mps 725 mmHg 89%
21:00 +9°C° 0 mm 3 mps 725 mmHg 89%
22:00 +9°C° 0 mm 3 mps 725 mmHg 88%
23:00 +9°C° 0 mm 3 mps 725 mmHg 87%

2 November, Monday

Time Temperature Precipitation Wind Pressure Humidity
00:00 +9°C° 0 mm 3 mps 724 mmHg 86%
01:00 +10°C° 0 mm 2 mps 724 mmHg 85%
02:00 +10°C° 0 mm 3 mps 724 mmHg 84%
03:00 +10°C° 0 mm 3 mps 724 mmHg 84%
04:00 +11°C° 0 mm 3 mps 724 mmHg 84%
05:00 +11°C° 0 mm 3 mps 724 mmHg 83%
06:00 +11°C° 0 mm 3 mps 724 mmHg 83%
07:00 +11°C° 0 mm 3 mps 724 mmHg 82%
08:00 +11°C° 0 mm 3 mps 724 mmHg 79%
09:00 +12°C° 0 mm 3 mps 724 mmHg 76%
10:00 +13°C° 0 mm 3 mps 724 mmHg 74%
11:00 +13°C° 0 mm 3 mps 724 mmHg 72%
12:00 +13°C° 0 mm 3 mps 724 mmHg 71%
13:00 +14°C° 0 mm 3 mps 724 mmHg 70%
14:00 +13°C° 0 mm 3 mps 724 mmHg 72%
15:00 +14°C° 0 mm 2 mps 723 mmHg 74%
16:00 +13°C° 0 mm 2 mps 723 mmHg 76%
17:00 +13°C° 0 mm 2 mps 723 mmHg 78%
18:00 +13°C° 0 mm 2 mps 723 mmHg 81%
19:00 +12°C° 0 mm 2 mps 723 mmHg 83%
20:00 +12°C° 0 mm 2 mps 723 mmHg 83%
21:00 +13°C° 0 mm 2 mps 723 mmHg 83%
22:00 +13°C° 0 mm 2 mps 723 mmHg 82%
23:00 +13°C° 0 mm 2 mps 723 mmHg 82%

3 November, Tuesday

Time Temperature Precipitation Wind Pressure Humidity
00:00 +13°C° 0 mm 2 mps 723 mmHg 81%
01:00 +13°C° 0 mm 2 mps 723 mmHg 80%
02:00 +13°C° 0 mm 1 mps 723 mmHg 79%
03:00 +13°C° 0 mm 1 mps 724 mmHg 79%
04:00 +13°C° 0 mm 1 mps 724 mmHg 78%
05:00 +13°C° 0 mm 1 mps 724 mmHg 78%
06:00 +13°C° 0 mm 1 mps 724 mmHg 78%
07:00 +13°C° 0 mm 1 mps 724 mmHg 78%
08:00 +13°C° 0.1 mm 1 mps 724 mmHg 80%
09:00 +13°C° 0.1 mm 1 mps 724 mmHg 82%
10:00 +13°C° 0.1 mm 1 mps 724 mmHg 84%
11:00 +12°C° 0.3 mm 1 mps 725 mmHg 87%
12:00 +12°C° 0.3 mm 1 mps 725 mmHg 90%
13:00 +12°C° 0.3 mm 1 mps 725 mmHg 93%
14:00 +12°C° 0.7 mm 1 mps 725 mmHg 94%
15:00 +12°C° 0.7 mm 1 mps 725 mmHg 96%
16:00 +12°C° 0.7 mm 1 mps 725 mmHg 97%
17:00 +12°C° 0.9 mm 1 mps 725 mmHg 97%
18:00 +12°C° 0.9 mm 1 mps 725 mmHg 98%
19:00 +12°C° 0.9 mm 1 mps 726 mmHg 98%
20:00 +12°C° 0.8 mm 1 mps 726 mmHg 98%
21:00 +12°C° 0.8 mm 1 mps 726 mmHg 98%
22:00 +12°C° 0.8 mm 1 mps 726 mmHg 98%
23:00 +11°C° 0.6 mm 1 mps 726 mmHg 98%
Show more